Tillbaka till svenska Fidonet
English   Information   Debug  
FILM   0/18
FNEWS_PUBLISH   4926
FN_SYSOP   42201
FN_SYSOP_OLD1   71952
FTP_FIDO   0/2
FTSC_PUBLIC   0/13973
FUNNY   0/4886
GENEALOGY.EUR   0/71
GET_INFO   105
GOLDED   0/408
HAM   2250/16660
HOLYSMOKE   0/6791
HOT_SITES   0/1
HTMLEDIT   0/71
HUB203   466
HUB_100   264
HUB_400   39
HUMOR   0/29
IC   0/2851
INTERNET   0/424
INTERUSER   0/3
IP_CONNECT   719
JAMNNTPD   0/233
JAMTLAND   0/47
KATTY_KORNER   0/41
LAN   0/16
LINUX-USER   0/19
LINUXHELP   0/1155
LINUX   0/22300
LINUX_BBS   0/957
mail   18.68
mail_fore_ok   249
MENSA   0/341
MODERATOR   0/102
MONTE   0/992
MOSCOW_OKLAHOMA   0/1245
MUFFIN   0/783
MUSIC   0/321
N203_STAT   938
N203_SYSCHAT   313
NET203   321
NET204   69
NET_DEV   0/10
NORD.ADMIN   0/101
NORD.CHAT   0/2572
NORD.FIDONET   189
NORD.HARDWARE   0/28
NORD.KULTUR   0/114
NORD.PROG   0/32
NORD.SOFTWARE   0/88
NORD.TEKNIK   0/58
NORD   0/453
OCCULT_CHAT   0/93
OS2BBS   0/787
OS2DOSBBS   0/580
OS2HW   0/42
OS2INET   0/37
OS2LAN   0/134
OS2PROG   0/36
OS2REXX   0/113
OS2USER-L   207
OS2   0/4830
OSDEBATE   6335/18996
PASCAL   0/490
PERL   0/457
PHP   0/45
POINTS   0/405
POLITICS   0/29554
POL_INC   0/14731
PSION   103
R20_ADMIN   1133
R20_AMATORRADIO   0/2
R20_BEST_OF_FIDONET   16
R20_CHAT   0/896
R20_DEPP   0/3
R20_DEV   400
R20_ECHO2   1831
R20_ECHOPRES   0/35
R20_ESTAT   0/719
R20_FIDONETPROG...
...RAM.MYPOINT
  0/2
R20_FIDONETPROGRAM   0/22
R20_FIDONET   0/248
R20_FILEFIND   0/24
R20_FILEFOUND   0/22
R20_HIFI   0/3
R20_INFO2   3723
R20_INTERNET   0/12940
R20_INTRESSE   0/60
R20_INTR_KOM   0/99
R20_KANDIDAT.CHAT   42
R20_KANDIDAT   28
R20_KOM_DEV   112
R20_KONTROLL   0/13360
R20_KORSET   0/18
R20_LOKALTRAFIK   0/24
R20_MODERATOR   0/1852
R20_NC   76
R20_NET200   245
R20_NETWORK.OTH...
...ERNETS
  0/13
R20_OPERATIVSYS...
...TEM.LINUX
  0/44
R20_PROGRAMVAROR   0/1
R20_REC2NEC   534
R20_SFOSM   0/341
R20_SF   0/108
R20_SPRAK.ENGLISH   0/1
R20_SQUISH   107
R20_TEST   2
R20_WORST_OF_FIDONET   20
RAR   0/9
RA_MULTI   106
RA_UTIL   0/162
REGCON.EUR   0/2068
REGCON   0/13
SCIENCE   0/1206
SF   0/239
SHAREWARE_SUPPORT   0/5146
SHAREWRE   0/14
SIMPSONS   0/169
STATS_OLD1   0/2539.065
STATS_OLD2   0/2530
STATS_OLD3   0/2395.095
STATS_OLD4   0/1692.25
SURVIVOR   0/495
SYSOPS_CORNER   0/3
SYSOP   0/84
TAGLINES   0/112
TEAMOS2   0/4530
TECH   0/2617
TEST.444   0/105
TRAPDOOR   0/19
TREK   0/755
TUB   0/290
UFO   0/40
UNIX   0/1316
USA_EURLINK   0/102
USR_MODEMS   0/1
VATICAN   0/2740
VIETNAM_VETS   0/14
VIRUS   0/378
VIRUS_INFO   0/201
VISUAL_BASIC   0/473
WHITEHOUSE   0/5187
WIN2000   0/101
WIN32   0/30
WIN95   0/4291
WIN95_OLD1   36938/70272
WINDOWS   0/1517
WWB_SYSOP   0/419
WWB_TECH   0/810
ZCC-PUBLIC   0/1
ZEC   4

 
4DOS   0/134
ABORTION   0/7
ALASKA_CHAT   0/506
ALLFIX_FILE   0/1313
ALLFIX_FILE_OLD1   0/7997
ALT_DOS   0/152
AMATEUR_RADIO   0/1039
AMIGASALE   0/14
AMIGA   0/331
AMIGA_INT   0/1
AMIGA_PROG   0/20
AMIGA_SYSOP   0/26
ANIME   0/15
ARGUS   0/924
ASCII_ART   0/340
ASIAN_LINK   0/651
ASTRONOMY   0/417
AUDIO   0/92
AUTOMOBILE_RACING   0/105
BABYLON5   0/17862
BAG   135
BATPOWER   0/361
BBBS.ENGLISH   0/382
BBSLAW   0/109
BBS_ADS   0/5290
BBS_INTERNET   0/507
BIBLE   0/3563
BINKD   0/1119
BINKLEY   0/215
BLUEWAVE   0/2173
CABLE_MODEMS   0/25
CBM   0/46
CDRECORD   0/66
CDROM   0/20
CLASSIC_COMPUTER   0/378
COMICS   0/15
CONSPRCY   0/899
COOKING   41444
COOKING_OLD1   0/24719
COOKING_OLD2   10931/40862
COOKING_OLD3   0/37489
COOKING_OLD4   0/35496
COOKING_OLD5   9370
C_ECHO   0/189
C_PLUSPLUS   0/31
DIRTY_DOZEN   0/201
DOORGAMES   0/2285
DOS_INTERNET   0/196
duplikat   6102
ECHOLIST   0/18295
EC_SUPPORT   0/318
ELECTRONICS   0/359
ELEKTRONIK.GER   1534
ENET.LINGUISTIC   0/13
ENET.POLITICS   0/4
ENET.SOFT   0/11701
ENET.SYSOP   34296
ENET.TALKS   0/32
ENGLISH_TUTOR   0/2000
EVOLUTION   0/1335
FDECHO   0/217
FDN_ANNOUNCE   0/7068
FIDONEWS   25062
FIDONEWS_OLD1   0/49742
FIDONEWS_OLD2   0/35949
FIDONEWS_OLD3   0/30874
FIDONEWS_OLD4   0/37224
FIDO_SYSOP   12922
FIDO_UTIL   0/180
FILEFIND   0/209
FILEGATE   0/212
Möte HAM, 16660 texter
 lista första sista föregående nästa
Text 3766, 880 rader
Skriven 2010-07-01 23:30:22 av Amsat List (1:323/120.0)
Ärende: [keps]  orb10182.amsa
=============================
[keps]  orb10182.amsa

Return-Path: <keps-bounces@amsat.org>
X-Rcpt: craig.healy@chowda.com
X-UIDL: 1278040291.22129

SB KEPS @ AMSAT  $ORB10182.O
Orbital Elements  10182.OSCAR

HR AMSAT ORBITAL ELEMENTS FOR OSCAR SATELLITES
FROM WA5QGD FORT WORTH,TX July 1, 2010
Send Subscribe/unsubscribe to KEPS at http://www.amsat.org/mailman/listinfo/kep
BID: ORB10182.O
TO ALL RADIO AMATEURS BT

Satellite: AO-07
Catalog number: 07530
Epoch time:      10182.56777395
Element set:     815
Inclination:      101.3996 deg
RA of node:       197.8754 deg
Eccentricity:    0.0011615
Arg of perigee:   246.5386 deg
Mean anomaly:     113.4469 deg
Mean motion:   12.53578781 rev/day
Decay rate:       -2.7e-07 rev/day^2
Epoch rev:           63025
Checksum:              327

Satellite: FO-29
Catalog number: 24278
Epoch time:      10182.74768864
Element set:     343
Inclination:      098.5141 deg
RA of node:       009.8650 deg
Eccentricity:    0.0351478
Arg of perigee:   086.0832 deg
Mean anomaly:     278.0409 deg
Mean motion:   13.52950437 rev/day
Decay rate:      -1.28e-06 rev/day^2
Epoch rev:           68507
Checksum:              334

Satellite: SO-33
Catalog number: 25509
Epoch time:      10181.81930802
Element set:    0745
Inclination:      031.4313 deg
RA of node:       071.4166 deg
Eccentricity:    0.0353759
Arg of perigee:   049.0943 deg
Mean anomaly:     313.9753 deg
Mean motion:   14.28312746 rev/day
Decay rate:       2.17e-06 rev/day^2
Epoch rev:           61000
Checksum:              282

Satellite: RS-22
Catalog number: 27939
Epoch time:      10182.61910159
Element set:     321
Inclination:      097.8906 deg
RA of node:       047.4919 deg
Eccentricity:    0.0014093
Arg of perigee:   018.9316 deg
Mean anomaly:     341.2411 deg
Mean motion:   14.63430155 rev/day
Decay rate:        6.1e-07 rev/day^2
Epoch rev:           36106
Checksum:              284

Satellite: VO-52
Catalog number: 28650
Epoch time:      10181.23382877
Element set:    0541
Inclination:      097.6918 deg
RA of node:       234.1597 deg
Eccentricity:    0.0026090
Arg of perigee:   232.4227 deg
Mean anomaly:     127.4664 deg
Mean motion:   14.81764240 rev/day
Decay rate:        1.2e-07 rev/day^2
Epoch rev:           27862
Checksum:              305

Satellite: SO-67
Catalog number: 35870
Epoch time:      10182.92501391
Element set:     869
Inclination:      097.3306 deg
RA of node:       231.6709 deg
Eccentricity:    0.0004563
Arg of perigee:   061.1849 deg
Mean anomaly:     064.0253 deg
Mean motion:   15.20939422 rev/day
Decay rate:       7.04e-06 rev/day^2
Epoch rev:            4369
Checksum:              304

Satellite: HO-68
Catalog number: 36122
Epoch time:      10182.68968790
Element set:     445
Inclination:      100.4685 deg
RA of node:       242.9728 deg
Eccentricity:    0.0007183
Arg of perigee:   305.5862 deg
Mean anomaly:     054.4583 deg
Mean motion:   13.16280972 rev/day
Decay rate:       -4.5e-07 rev/day^2
Epoch rev:            2612
Checksum:              312

/EX
SB KEPS @ AMSAT  $ORB10182.D
Orbital Elements  10182.MICROS

HR AMSAT ORBITAL ELEMENTS FOR THE MICROSATS
FROM WA5QGD FORT WORTH,TX July 1, 2010
Send Subscribe/unsubscribe to KEPS at http://www.amsat.org/mailman/listinfo/kep
BID: ORB10182.D
TO ALL RADIO AMATEURS BT

Satellite: UO-11
Catalog number: 14781
Epoch time:      10181.34291029
Element set:    0278
Inclination:      098.0533 deg
RA of node:       233.1246 deg
Eccentricity:    0.0008943
Arg of perigee:   188.0257 deg
Mean anomaly:     172.0798 deg
Mean motion:   14.79812360 rev/day
Decay rate:        1.5e-07 rev/day^2
Epoch rev:           41375
Checksum:              297

Satellite: AO-16
Catalog number: 20439
Epoch time:      10181.88528790
Element set:    0935
Inclination:      098.3322 deg
RA of node:       139.2526 deg
Eccentricity:    0.0011778
Arg of perigee:   122.8522 deg
Mean anomaly:     237.3801 deg
Mean motion:   14.31865317 rev/day
Decay rate:       -1.6e-07 rev/day^2
Epoch rev:           06734
Checksum:              303

Satellite: LO-19
Catalog number: 20442
Epoch time:      10182.43975604
Element set:     844
Inclination:      098.2938 deg
RA of node:       145.5294 deg
Eccentricity:    0.0012799
Arg of perigee:   116.8640 deg
Mean anomaly:     243.3871 deg
Mean motion:   14.32096222 rev/day
Decay rate:       -6.5e-07 rev/day^2
Epoch rev:            6759
Checksum:              320

Satellite: AO-27
Catalog number: 22825
Epoch time:      10182.43401544
Element set:     567
Inclination:      098.4850 deg
RA of node:       130.0161 deg
Eccentricity:    0.0007817
Arg of perigee:   222.5260 deg
Mean anomaly:     137.5313 deg
Mean motion:   14.29301401 rev/day
Decay rate:       1.00e-06 rev/day^2
Epoch rev:           87408
Checksum:              257

Satellite: IO-26
Catalog number: 22826
Epoch time:      10182.56691951
Element set:     303
Inclination:      098.4800 deg
RA of node:       130.7416 deg
Eccentricity:    0.0008319
Arg of perigee:   217.2165 deg
Mean anomaly:     142.8435 deg
Mean motion:   14.29557022 rev/day
Decay rate:       -1.4e-07 rev/day^2
Epoch rev:           87421
Checksum:              287

Satellite: GO-32
Catalog number: 25397
Epoch time:      10181.52924685
Element set:    0223
Inclination:      098.3116 deg
RA of node:       188.2445 deg
Eccentricity:    0.0000850
Arg of perigee:   170.6147 deg
Mean anomaly:     189.5051 deg
Mean motion:   14.23180370 rev/day
Decay rate:       -1.5e-07 rev/day^2
Epoch rev:           62194
Checksum:              287

